Flag for Canada Weather past 2 weeks in Toronto, Ontario, Canada

Now
27 °F

Snow flurries. Overcast.


Feels Like: 18 °F
Forecast: 10 / 25 °F
Wind: 8 mph from West

Location: Toronto Pearson International Airport

Current Time: Feb 1, 2015 at 2:47:20 AM

Latest Report: Feb 1, 2015 at 2:00 AM


Visibility: 12 mi

Pressure: 30.17 "Hg

Humidity: 86%

Dew point: 23 °F

Location of TorontoLocation

Historic Weather in Toronto — Graph

°F

Toronto temperature yesterday

Maximum temperature yesterday: 27 °F (at 10:00 PM)
Minimum temperature yesterday: 1 °F (at 12:00 AM)
Average temperature yesterday: 16 °F

Past Weeks' High & Low Weather Summary

 TemperatureHumidityPressure
High43 °F (Jan 18, 4:00 AM)93% (Jan 18, 9:00 AM)30.41 "Hg (Jan 18, 9:00 AM)
Low1 °F (Jan 31, 12:00 AM)29% (Jan 28, 3:00 PM)29.48 "Hg (Jan 24, 4:00 PM)
Average21 °F70%30.04 "Hg
* Reported Jan 17 1:00 AM — Feb 1 1:00 AM, Toronto, Weather by CustomWeather, © 2014

Note: Actual official high and low records may vary slightly from our data, if they occured in-between our weather recording intervals... More about our weather records

Advertising

Toronto weather history for previous 24 hours

 ConditionsComfort  
Time TempWeatherWind HumidityBarometerVisibility
1:00 AM
Feb 1
27 °FSnow flurries. Overcast.12 mph86%30.17 "Hg12 mi
12:52 AM27 °FSnow flurries. Overcast.9 mph86%30.17 "Hg12 mi
12:00 AM27 °FOvercast.12 mph86%30.17 "Hg15 mi
11:00 PM
Jan 31
27 °FOvercast.17 mph80%30.17 "Hg15 mi
10:00 PM27 °FOvercast.10 mph80%30.17 "Hg15 mi
9:00 PM25 °FOvercast.10 mph80%30.18 "Hg15 mi
8:00 PM25 °FOvercast.12 mph80%30.19 "Hg15 mi
7:00 PM25 °FOvercast.8 mph80%30.19 "Hg15 mi
6:00 PM25 °FOvercast.12 mph74%30.20 "Hg15 mi
5:00 PM25 °FOvercast.14 mph69%30.19 "Hg15 mi
4:00 PM25 °FPartly sunny.7 mph63%30.20 "Hg15 mi
3:00 PM23 °FMostly cloudy.10 mph63%30.22 "Hg15 mi
2:00 PM23 °FPartly sunny.7 mph63%30.23 "Hg12 mi
1:00 PM19 °FSnow flurries. Partly sunny.8 mph68%30.26 "Hg12 mi
12:46 PM19 °FSnow flurries. Mostly cloudy.9 mph68%30.27 "Hg12 mi
12:00 PM19 °FBroken clouds.9 mph68%30.29 "Hg15 mi
11:00 AM18 °FPartly sunny.6 mph68%30.31 "Hg15 mi
10:00 AM16 °FPartly sunny.5 mph67%30.33 "Hg15 mi
9:00 AM12 °FPartly sunny.3 mph73%30.34 "Hg15 mi
8:00 AM10 °FMostly cloudy.2 mph72%30.35 "Hg15 mi
7:00 AM9 °FSnow flurries. Overcast.3 mph66%30.36 "Hg15 mi
6:00 AM7 °FPassing clouds.2 mph72%30.35 "Hg15 mi
5:00 AM7 °FOvercast.3 mph72%30.35 "Hg15 mi
4:00 AM5 °FPassing clouds.5 mph78%30.37 "Hg15 mi
3:00 AM3 °FPassing clouds.2 mph78%30.39 "Hg15 mi
2:00 AM1 °FPassing clouds.3 mph78%30.39 "Hg15 mi
Weather by CustomWeather, © 2014

See weather overviewHow to use our weather pages